Previsão horária em Al Manqaf

Hoje, 15 Janeiro, Sexta-feira

Tempo Temperatura Precipitação Vento Pressão Humidade
00:00 +16°C° 0 mm 5 m/s 757 mmHg 36%
01:00 +16°C° 0 mm 5 m/s 757 mmHg 35%
02:00 +16°C° 0 mm 6 m/s 757 mmHg 35%
03:00 +16°C° 0 mm 7 m/s 757 mmHg 34%
04:00 +16°C° 0 mm 6 m/s 757 mmHg 32%
05:00 +15°C° 0 mm 6 m/s 757 mmHg 29%
06:00 +15°C° 0 mm 6 m/s 757 mmHg 27%
07:00 +16°C° 0 mm 6 m/s 757 mmHg 25%
08:00 +17°C° 0 mm 6 m/s 757 mmHg 23%
09:00 +17°C° 0 mm 6 m/s 758 mmHg 22%
10:00 +20°C° 0 mm 6 m/s 757 mmHg 23%
11:00 +21°C° 0 mm 5 m/s 757 mmHg 24%
12:00 +22°C° 0 mm 5 m/s 757 mmHg 25%
13:00 +22°C° 0 mm 4 m/s 757 mmHg 27%
14:00 +24°C° 0 mm 3 m/s 757 mmHg 29%
15:00 +24°C° 0 mm 3 m/s 756 mmHg 31%
16:00 +22°C° 0 mm 3 m/s 756 mmHg 34%
17:00 +21°C° 0 mm 2 m/s 757 mmHg 37%
18:00 +20°C° 0 mm 2 m/s 757 mmHg 41%
19:00 +20°C° 0 mm 3 m/s 757 mmHg 42%
20:00 +19°C° 0 mm 3 m/s 758 mmHg 43%
21:00 +19°C° 0 mm 3 m/s 758 mmHg 44%
22:00 +18°C° 0 mm 4 m/s 758 mmHg 46%
23:00 +17°C° 0 mm 5 m/s 758 mmHg 48%

Amanhã, 16 Janeiro, Sábado

Tempo Temperatura Precipitação Vento Pressão Humidade
00:00 +16°C° 0 mm 6 m/s 758 mmHg 50%
01:00 +16°C° 0 mm 6 m/s 758 mmHg 50%
02:00 +16°C° 0 mm 5 m/s 758 mmHg 51%
03:00 +15°C° 0 mm 5 m/s 758 mmHg 51%
04:00 +15°C° 0 mm 5 m/s 758 mmHg 53%
05:00 +14°C° 0 mm 5 m/s 758 mmHg 54%
06:00 +14°C° 0 mm 5 m/s 759 mmHg 56%
07:00 +15°C° 0 mm 5 m/s 759 mmHg 54%
08:00 +15°C° 0 mm 5 m/s 759 mmHg 52%
09:00 +17°C° 0 mm 4 m/s 759 mmHg 50%
10:00 +18°C° 0 mm 4 m/s 759 mmHg 46%
11:00 +19°C° 0 mm 4 m/s 759 mmHg 42%
12:00 +21°C° 0 mm 3 m/s 758 mmHg 38%
13:00 +21°C° 0 mm 3 m/s 758 mmHg 35%
14:00 +23°C° 0 mm 2 m/s 757 mmHg 32%
15:00 +23°C° 0 mm 1 m/s 756 mmHg 29%
16:00 +22°C° 0 mm 1 m/s 756 mmHg 30%
17:00 +22°C° 0 mm 1 m/s 756 mmHg 32%
18:00 +20°C° 0 mm 2 m/s 756 mmHg 34%
19:00 +20°C° 0 mm 2 m/s 757 mmHg 37%
20:00 +20°C° 0 mm 2 m/s 757 mmHg 39%
21:00 +19°C° 0 mm 2 m/s 757 mmHg 42%
22:00 +19°C° 0 mm 2 m/s 757 mmHg 43%
23:00 +19°C° 0 mm 2 m/s 756 mmHg 44%

Depois de amanhã, 17 Janeiro, Domingo

Tempo Temperatura Precipitação Vento Pressão Humidade
00:00 +19°C° 0 mm 1 m/s 756 mmHg 45%
01:00 +18°C° 0 mm 2 m/s 756 mmHg 45%
02:00 +18°C° 0 mm 2 m/s 756 mmHg 46%
03:00 +18°C° 0 mm 2 m/s 755 mmHg 46%
04:00 +18°C° 0 mm 2 m/s 755 mmHg 49%
05:00 +18°C° 0 mm 2 m/s 756 mmHg 51%
06:00 +18°C° 0 mm 3 m/s 756 mmHg 53%
07:00 +18°C° 0 mm 2 m/s 756 mmHg 53%
08:00 +19°C° 0 mm 2 m/s 756 mmHg 53%
09:00 +19°C° 0 mm 2 m/s 756 mmHg 53%
10:00 +20°C° 0 mm 2 m/s 756 mmHg 51%
11:00 +20°C° 0 mm 2 m/s 756 mmHg 49%
12:00 +21°C° 0 mm 2 m/s 756 mmHg 46%
13:00 +21°C° 0 mm 2 m/s 756 mmHg 46%
14:00 +23°C° 0 mm 2 m/s 756 mmHg 45%
15:00 +23°C° 0 mm 2 m/s 755 mmHg 44%
16:00 +21°C° 0 mm 2 m/s 756 mmHg 49%
17:00 +20°C° 0 mm 3 m/s 756 mmHg 55%
18:00 +20°C° 0 mm 3 m/s 757 mmHg 60%
19:00 +19°C° 0 mm 3 m/s 757 mmHg 58%
20:00 +19°C° 0 mm 3 m/s 757 mmHg 56%
21:00 +19°C° 0 mm 3 m/s 757 mmHg 54%
22:00 +19°C° 0 mm 3 m/s 758 mmHg 49%
23:00 +18°C° 0 mm 3 m/s 758 mmHg 43%

18 Janeiro, Segunda-feira

Tempo Temperatura Precipitação Vento Pressão Humidade
00:00 +18°C° 0 mm 3 m/s 758 mmHg 38%
01:00 +17°C° 0 mm 3 m/s 758 mmHg 40%
02:00 +17°C° 0 mm 3 m/s 758 mmHg 43%
03:00 +17°C° 0 mm 4 m/s 757 mmHg 45%
04:00 +15°C° 0 mm 4 m/s 758 mmHg 45%
05:00 +15°C° 0 mm 4 m/s 758 mmHg 45%
06:00 +15°C° 0 mm 4 m/s 759 mmHg 45%
07:00 +15°C° 0 mm 4 m/s 759 mmHg 41%
08:00 +17°C° 0 mm 4 m/s 760 mmHg 38%
09:00 +17°C° 0 mm 4 m/s 760 mmHg 34%
10:00 +19°C° 0 mm 4 m/s 760 mmHg 30%
11:00 +20°C° 0 mm 5 m/s 760 mmHg 25%
12:00 +21°C° 0 mm 5 m/s 760 mmHg 21%
13:00 +22°C° 0 mm 4 m/s 760 mmHg 21%
14:00 +22°C° 0 mm 4 m/s 760 mmHg 21%
15:00 +22°C° 0 mm 4 m/s 760 mmHg 21%
16:00 +22°C° 0 mm 4 m/s 760 mmHg 23%
17:00 +21°C° 0 mm 3 m/s 760 mmHg 24%
18:00 +20°C° 0 mm 3 m/s 761 mmHg 26%
19:00 +20°C° 0 mm 3 m/s 761 mmHg 27%
20:00 +19°C° 0 mm 3 m/s 761 mmHg 29%
21:00 +19°C° 0 mm 3 m/s 761 mmHg 30%
22:00 +18°C° 0 mm 3 m/s 761 mmHg 32%
23:00 +18°C° 0 mm 3 m/s 761 mmHg 34%

19 Janeiro, Terça-feira

Tempo Temperatura Precipitação Vento Pressão Humidade
00:00 +17°C° 0 mm 3 m/s 761 mmHg 36%
01:00 +17°C° 0 mm 4 m/s 761 mmHg 37%
02:00 +16°C° 0 mm 5 m/s 761 mmHg 38%
03:00 +15°C° 0 mm 5 m/s 761 mmHg 40%
04:00 +15°C° 0 mm 5 m/s 762 mmHg 41%
05:00 +15°C° 0 mm 5 m/s 762 mmHg 42%
06:00 +14°C° 0 mm 5 m/s 762 mmHg 43%
07:00 +15°C° 0 mm 4 m/s 762 mmHg 43%
08:00 +15°C° 0 mm 4 m/s 763 mmHg 42%
09:00 +17°C° 0 mm 4 m/s 763 mmHg 42%
10:00 +18°C° 0 mm 4 m/s 763 mmHg 39%
11:00 +19°C° 0 mm 4 m/s 762 mmHg 36%
12:00 +20°C° 0 mm 4 m/s 762 mmHg 33%
13:00 +20°C° 0 mm 3 m/s 762 mmHg 31%
14:00 +21°C° 0 mm 3 m/s 761 mmHg 29%
15:00 +21°C° 0 mm 3 m/s 761 mmHg 28%
16:00 +20°C° 0 mm 2 m/s 761 mmHg 29%
17:00 +20°C° 0 mm 2 m/s 760 mmHg 30%
18:00 +19°C° 0 mm 2 m/s 760 mmHg 32%
19:00 +19°C° 0 mm 2 m/s 761 mmHg 32%
20:00 +18°C° 0 mm 2 m/s 761 mmHg 33%
21:00 +18°C° 0 mm 2 m/s 761 mmHg 34%
22:00 +18°C° 0 mm 2 m/s 761 mmHg 36%
23:00 +18°C° 0 mm 1 m/s 761 mmHg 37%

20 Janeiro, Quarta-feira

Tempo Temperatura Precipitação Vento Pressão Humidade
00:00 +16°C° 0 mm 1 m/s 760 mmHg 39%
01:00 +16°C° 0 mm 1 m/s 760 mmHg 40%
02:00 +16°C° 0 mm 1 m/s 760 mmHg 40%
03:00 +16°C° 0 mm 1 m/s 760 mmHg 41%
04:00 +15°C° 0 mm 1 m/s 760 mmHg 42%
05:00 +15°C° 0 mm 1 m/s 760 mmHg 42%
06:00 +15°C° 0 mm 1 m/s 760 mmHg 42%
07:00 +16°C° 0 mm 1 m/s 760 mmHg 41%
08:00 +17°C° 0 mm 2 m/s 760 mmHg 40%
09:00 +18°C° 0 mm 3 m/s 761 mmHg 39%
10:00 +19°C° 0 mm 3 m/s 760 mmHg 37%
11:00 +20°C° 0 mm 4 m/s 760 mmHg 36%
12:00 +21°C° 0 mm 5 m/s 759 mmHg 34%
13:00 +21°C° 0 mm 5 m/s 758 mmHg 35%
14:00 +21°C° 0 mm 6 m/s 758 mmHg 36%
15:00 +21°C° 0 mm 6 m/s 757 mmHg 37%
16:00 +20°C° 0 mm 6 m/s 757 mmHg 41%
17:00 +20°C° 0 mm 6 m/s 757 mmHg 44%
18:00 +19°C° 0 mm 6 m/s 756 mmHg 48%
19:00 +19°C° 0 mm 6 m/s 756 mmHg 51%
20:00 +19°C° 0 mm 6 m/s 756 mmHg 55%
21:00 +17°C° 0 mm 6 m/s 756 mmHg 58%
22:00 +17°C° 0 mm 5 m/s 756 mmHg 58%
23:00 +18°C° 0 mm 4 m/s 756 mmHg 58%
Mostrar mais

Necessitamos do seu Consentimento

A Meteoprog e os seus Fornecedores de Serviços podem armazenar e aceder a dados pessoais como cookies, identificadores do dispositivo ou outras tecnologias semelhantes existentes no seu dispositivo e processar estes dados para personalizar conteúdos e anúncios, assim como funcionalidades nas redes sociais e análise de tráfego.

  • Armazenar e/ou aceder a informações no seu dispositivo

    Os cookies, identificadores do dispositivo ou outras informações podem ser armazenados ou acedidos no seu dispositivo, para os fins acima indicados.

  • Anúncios e conteúdos personalizados, medição de anúncios e conteúdos, dados sobre o público-alvo e desenvolvimento de produtos

    Os anúncios e os conteúdos podem ser personalizados com base num perfil. Podem ser adicionados dados adicionais para uma maior personalização dos anúncios e dos conteúdos. A eficácia dos anúncios e dos conteúdos pode ser medida. Podem ser obtidas informações sobre o público que visualizou os anúncios e os conteúdos. Estes dados podem ser usados para desenvolver ou melhorar sistemas, softwares ou a experiência do utilizador.

Ao clicar em "Eu concordo”, permitirá o uso de cookies, identificadores do dispositivo e web beacons mencionados ou outras tecnologias semelhantes. As configurações do navegador do seu dispositivo podem ser alteradas.

Para certos fins, podem ser invocados interesses legítimos ao invés de consentimento. Pode ler mais informação sobre este assunto na nossa Política de Privacidade e Cookies.